Weather reports worldwide

Advertisment
Palermo/Punta Raisi, Italy (16405): temperature & dewpoint: 09.10.2019 20:00:00 - 15.10.2019 20:00:00 (CEST)Palermo/Punta Raisi, Italy (16405): wind speed: 09.10.2019 20:00:00 - 15.10.2019 20:00:00 (CEST)Palermo/Punta Raisi, Italy (16405): wind direction: 09.10.2019 20:00:00 - 15.10.2019 20:00:00 (CEST)Palermo/Punta Raisi, Italy (16405): reduced air pressure: 09.10.2019 20:00:00 - 15.10.2019 20:00:00 (CEST)Palermo/Punta Raisi, Italy (16405): visibility: 09.10.2019 20:00:00 - 15.10.2019 20:00:00 (CEST)Palermo/Punta Raisi, Italy (16405): precipitation: 09.10.2019 20:00:00 - 15.10.2019 20:00:00 (CEST)
Date & Time tt [°C] td [°C] ff [km/h] ff [kn] dd ppp [hPa] vv [km] rr [mm]
15.10.2019 20:00:00 23,0 19,0 15 8 SW - 10 -
15.10.2019 19:00:00 24,0 19,0 28 15 SW - 10 -
15.10.2019 18:00:00 25,0 19,0 26 14 SW - 10 -
15.10.2019 17:00:00 25,4 18,0 26 14 SSW 1015,7 10 0,0
15.10.2019 16:00:00 27,0 18,0 29 16 SSW - 10 -
15.10.2019 15:00:00 27,0 17,0 28 15 SW - 10 -
15.10.2019 14:00:00 26,9 17,4 24 13 SSW 1016,2 10 -
15.10.2019 13:00:00 27,0 18,0 26 14 SSW - 10 -
15.10.2019 12:00:00 26,0 17,0 28 15 SSW - 10 -
15.10.2019 11:00:00 25,8 16,6 11 6 SE 1017,6 10 0,0
15.10.2019 10:00:00 23,0 17,0 5 3 - - 10 -
15.10.2019 09:00:00 21,0 18,0 4 2 - - 10 -
15.10.2019 08:00:00 19,8 16,9 4 2 - 1017,7 10 -
15.10.2019 07:00:00 20,0 17,0 5 3 E - 10 -
15.10.2019 06:00:00 21,0 17,0 9 5 ENE - 10 -
15.10.2019 05:00:00 20,7 16,1 5 3 - 1017,4 10 0,0
15.10.2019 04:00:00 21,0 17,0 13 7 SW - 10 -
15.10.2019 03:00:00 20,0 16,0 8 4 ESE - 10 -
15.10.2019 02:00:00 19,6 15,2 8 4 S 1018,3 10 -
15.10.2019 01:00:00 21,0 16,0 4 2 SSE - 10 -
15.10.2019 00:00:00 21,0 16,0 2 1 - - 10 -
14.10.2019 23:00:00 21,4 16,7 8 4 SSW 1019,2 10 0,0
14.10.2019 22:00:00 22,0 16,0 8 4 SSW - 10 -
14.10.2019 21:00:00 22,0 16,0 4 2 - - 10 -
14.10.2019 20:00:00 22,3 16,0 8 4 S 1019,3 10 -
14.10.2019 19:00:00 23,0 17,0 5 3 ENE - 10 -
14.10.2019 18:00:00 24,0 18,0 18 10 ENE - 10 -
14.10.2019 17:00:00 24,1 17,9 21 11 ENE 1018,7 10 0,0
14.10.2019 16:00:00 25,0 18,0 24 13 ENE - 10 -
14.10.2019 15:00:00 25,0 17,0 24 13 ENE - 10 -
14.10.2019 14:00:00 24,9 15,5 16 9 NE 1020,0 10 -
14.10.2019 13:00:00 24,0 18,0 9 5 N - 10 -
14.10.2019 12:00:00 23,0 19,0 11 6 NNE - 10 -
14.10.2019 11:00:00 22,6 18,3 5 3 WNW 1021,6 10 0,0
14.10.2019 10:00:00 21,0 17,0 4 2 W - 10 -
14.10.2019 09:00:00 19,0 16,0 5 3 SSE - 10 -
14.10.2019 08:00:00 19,1 15,4 4 2 - 1021,1 10 -
14.10.2019 07:00:00 18,0 15,0 5 3 SSE - 10 -
14.10.2019 06:00:00 19,0 15,0 5 3 SE - 10 -
14.10.2019 05:00:00 18,8 15,7 5 3 E 1021,3 10 0,0
14.10.2019 04:00:00 19,0 16,0 5 3 S - 10 -
14.10.2019 03:00:00 19,0 16,0 11 6 SSW - 10 -
14.10.2019 02:00:00 19,3 16,0 8 4 SSW 1022,0 10 -
14.10.2019 01:00:00 21,0 17,0 4 2 S - 10 -
14.10.2019 00:00:00 20,0 17,0 5 3 SSE - 10 -
13.10.2019 23:00:00 21,5 18,6 5 3 WNW 1022,3 10 0,0
13.10.2019 22:00:00 22,0 17,0 4 2 - - 10 -
13.10.2019 21:00:00 22,0 17,0 9 5 S - 10 -
13.10.2019 20:00:00 22,3 18,5 15 8 SW 1022,1 10 -
13.10.2019 19:00:00 24,0 18,0 13 7 SSW - 10 -
13.10.2019 18:00:00 25,0 17,0 9 5 - - 10 -
13.10.2019 17:00:00 24,5 18,5 22 12 ENE 1021,1 10 0,0
13.10.2019 16:00:00 25,0 19,0 28 15 ENE - 10 -
13.10.2019 15:00:00 24,0 19,0 28 15 ENE - 10 -
13.10.2019 14:00:00 24,7 17,6 24 13 ENE 1021,9 10 -
13.10.2019 13:00:00 23,0 18,0 15 8 NNE - 10 -
13.10.2019 12:00:00 23,0 19,0 11 6 NNE - 10 -
13.10.2019 11:00:00 22,2 18,3 8 4 N 1023,5 10 0,0
13.10.2019 10:00:00 21,0 17,0 4 2 W - 10 -
13.10.2019 09:00:00 20,0 16,0 4 2 S - 10 -
13.10.2019 08:00:00 17,9 15,6 9 5 SSW 1022,7 10 -
13.10.2019 07:00:00 - - - - - - - -
13.10.2019 06:00:00 19,0 15,0 2 1 - - 10 -
13.10.2019 05:00:00 19,0 14,8 2 1 - 1022,5 10 0,0
13.10.2019 04:00:00 19,0 16,0 5 3 S - 10 -
13.10.2019 03:00:00 19,0 16,0 9 5 S - 10 -
13.10.2019 02:00:00 18,9 16,0 8 4 S 1023,2 10 -
13.10.2019 01:00:00 19,0 17,0 5 3 SE - 10 -
13.10.2019 00:00:00 20,0 17,0 5 3 SSE - 10 -
12.10.2019 23:00:00 20,6 17,6 4 2 - 1023,1 10 0,0
12.10.2019 22:00:00 21,0 18,0 4 2 - - 10 -
12.10.2019 21:00:00 22,0 19,0 9 5 WSW - 10 -
12.10.2019 20:00:00 22,1 18,1 8 4 SW 1022,8 10 -
12.10.2019 19:00:00 23,0 19,0 13 7 ENE - 10 -
12.10.2019 18:00:00 24,0 19,0 21 11 ENE - 10 -
12.10.2019 17:00:00 24,0 19,4 21 11 NE 1022,3 10 0,0
12.10.2019 16:00:00 24,0 19,0 22 12 NE - 10 -
12.10.2019 15:00:00 25,0 18,0 22 12 ENE - 10 -
12.10.2019 14:00:00 24,3 18,0 21 11 NE 1022,8 10 -
12.10.2019 13:00:00 24,0 18,0 16 9 NE - 10 -
12.10.2019 12:00:00 23,0 18,0 15 8 NE - 10 -
12.10.2019 11:00:00 22,3 18,6 8 4 N 1023,7 10 0,0
12.10.2019 10:00:00 22,0 18,0 2 1 - - 10 -
12.10.2019 09:00:00 20,0 17,0 5 3 S - 10 -
12.10.2019 08:00:00 18,6 15,8 4 2 - 1022,5 10 -
12.10.2019 07:00:00 19,0 16,0 2 1 - - 10 -
12.10.2019 06:00:00 19,0 16,0 4 2 S - 10 -
12.10.2019 05:00:00 18,4 16,2 4 2 S 1022,0 10 0,0
12.10.2019 04:00:00 19,0 17,0 2 1 - - 10 -
12.10.2019 03:00:00 20,0 17,0 2 1 SE - 10 -
12.10.2019 02:00:00 19,8 16,8 8 4 SE 1022,5 10 -
12.10.2019 01:00:00 21,0 17,0 4 2 - - 10 -
12.10.2019 00:00:00 20,0 17,0 4 2 - - 10 -
11.10.2019 23:00:00 20,9 16,8 4 2 - 1021,8 10 0,0
11.10.2019 22:00:00 21,0 17,0 8 4 SE - 10 -
11.10.2019 21:00:00 22,0 17,0 18 10 ENE - 10 -
11.10.2019 20:00:00 21,9 16,7 22 12 ENE 1020,8 10 -
11.10.2019 19:00:00 23,0 17,0 24 13 ENE - 10 -
11.10.2019 18:00:00 24,0 17,0 29 16 ENE - 10 -
11.10.2019 17:00:00 23,7 17,8 31 17 ENE 1020,2 10 0,0
11.10.2019 16:00:00 24,0 18,0 34 18 ENE - 10 -
11.10.2019 15:00:00 24,0 17,0 34 18 ENE - 10 -
11.10.2019 14:00:00 23,9 16,9 34 18 ENE 1021,0 10 -
11.10.2019 13:00:00 24,0 17,0 31 17 ENE - 10 -
11.10.2019 12:00:00 24,0 17,0 28 15 ENE - 10 -
11.10.2019 11:00:00 23,4 17,4 24 13 ENE 1021,6 10 0,0
11.10.2019 10:00:00 22,0 17,0 18 10 ENE - 10 -
11.10.2019 09:00:00 21,0 17,0 16 9 ENE - 10 -
11.10.2019 08:00:00 20,6 17,1 16 9 ENE 1020,1 10 -
11.10.2019 07:00:00 20,0 17,0 15 8 ENE - 10 -
11.10.2019 06:00:00 20,0 18,0 13 7 ENE - 10 -
11.10.2019 05:00:00 20,4 17,8 13 7 ENE 1019,6 10 0,0
11.10.2019 04:00:00 20,0 18,0 16 9 E - 10 -
11.10.2019 03:00:00 21,0 18,0 15 8 ENE - 10 -
11.10.2019 02:00:00 21,5 18,6 15 8 NE 1019,3 10 -
11.10.2019 01:00:00 21,0 19,0 13 7 ENE - 10 -
11.10.2019 00:00:00 22,0 19,0 13 7 NE - 10 -
10.10.2019 23:00:00 22,1 18,7 15 8 NE 1018,9 10 0,0
10.10.2019 22:00:00 22,0 19,0 15 8 NE - 10 -
10.10.2019 21:00:00 22,0 19,0 13 7 NE - 10 -
10.10.2019 20:00:00 21,8 19,1 13 7 NE 1017,7 10 -
10.10.2019 19:00:00 23,0 19,0 13 7 NNE - 10 -
10.10.2019 18:00:00 23,0 20,0 18 10 NNE - 10 -
10.10.2019 17:00:00 23,2 19,9 21 11 N 1017,1 10 0,0
10.10.2019 16:00:00 24,0 20,0 15 8 NNE - 10 -
10.10.2019 15:00:00 24,0 20,0 15 8 NNE - 10 -
10.10.2019 14:00:00 23,7 20,2 15 8 NNE 1016,6 10 -
10.10.2019 13:00:00 23,0 20,0 13 7 NNE - 10 -
10.10.2019 12:00:00 24,0 20,0 15 8 NE - 10 -
10.10.2019 11:00:00 23,6 20,1 11 6 NE 1017,3 10 0,0
10.10.2019 10:00:00 22,0 19,0 8 4 WSW - 10 -
10.10.2019 09:00:00 21,0 19,0 4 2 S - 10 -
10.10.2019 08:00:00 19,8 18,2 4 2 SSW 1016,3 10 -
10.10.2019 07:00:00 20,0 19,0 5 3 SE - 10 -
10.10.2019 06:00:00 20,0 18,0 8 4 S - 10 -
10.10.2019 05:00:00 19,6 17,2 8 4 S 1015,7 10 0,0
10.10.2019 04:00:00 19,0 17,0 4 2 - - 10 -
10.10.2019 03:00:00 20,0 16,0 8 4 SSW - 10 -
10.10.2019 02:00:00 19,5 16,8 5 3 SSE 1016,6 10 -
10.10.2019 01:00:00 20,0 17,0 4 2 ESE - 10 -
10.10.2019 00:00:00 21,0 19,0 4 2 - - 10 -
09.10.2019 23:00:00 21,1 17,8 2 1 - 1016,5 10 0,0
09.10.2019 22:00:00 20,0 17,0 11 6 ESE - 10 -
09.10.2019 21:00:00 22,0 19,0 15 8 E - 10 -
09.10.2019 20:00:00 23,0 18,2 16 9 E 1016,1 10 -

tt = temperature
td = dewpoint
ff = wind speed
dd = wind direction
ppp = reduced air pressure
vv = visibility
rr = precipitation

Next stations